| time (UTC) | temp F | wind direction | speed knots | gust knots | rain 1hr in | rain 24hr in | rain mn in | humidity % | barometer mb |
| 20260505125003 | 48 | 121 | 0.9 | 4.3 | 0.00 | 0.00 | 0.00 | 70 | 1003.7 |
| 20260505124524 | 47 | 59 | 0.9 | 4.3 | 0.00 | 0.00 | 0.00 | 70 | 1003.4 |
| 20260505124003 | 47 | 98 | 1.7 | 4.3 | 0.00 | 0.00 | 0.00 | 71 | 1003.4 |
| 20260505123524 | 47 | 98 | 0.0 | 1.7 | 0.00 | 0.00 | 0.00 | 72 | 1003.1 |
| 20260505122502 | 47 | 90 | 0.9 | 2.6 | 0.00 | 0.00 | 0.00 | 72 | 1003.2 |
| 20260505122024 | 47 | 96 | 0.9 | 2.6 | 0.00 | 0.00 | 0.00 | 72 | 1003.1 |
| 20260505121524 | 47 | 84 | 0.9 | 2.6 | 0.00 | 0.00 | 0.00 | 71 | 1003.0 |
| 20260505121002 | 47 | 87 | 0.9 | 2.6 | 0.00 | 0.00 | 0.00 | 71 | 1002.7 |
| 20260505120503 | 47 | 92 | 0.9 | 2.6 | 0.00 | 0.00 | 0.00 | 70 | 1002.7 |
| 20260505120004 | 47 | 90 | 0.9 | 2.6 | 0.00 | 0.00 | 0.00 | 69 | 1002.5 |
| 20260505115503 | 47 | 92 | 0.0 | 1.7 | 0.00 | 0.00 | 0.00 | 69 | 1002.6 |
| 20260505115003 | 47 | 92 | 0.0 | 1.7 | 0.00 | 0.00 | 0.00 | 69 | 1002.3 |
| 20260505114503 | 47 | 93 | 0.9 | 1.7 | 0.00 | 0.00 | 0.00 | 68 | 1002.4 |
| 20260505114003 | 48 | 93 | 0.9 | 1.7 | 0.00 | 0.00 | 0.00 | 68 | 1002.2 |
| 20260505113503 | 47 | 92 | 0.9 | 1.7 | 0.00 | 0.00 | 0.00 | 68 | 1002.4 |
| 20260505113045 | 47 | 91 | 0.0 | 2.6 | 0.00 | 0.00 | 0.00 | 69 | 1002.4 |
| 20260505112503 | 47 | 91 | 0.0 | 2.6 | 0.00 | 0.00 | 0.00 | 69 | 1002.3 |
| 20260505112024 | 47 | 72 | 0.9 | 1.7 | 0.00 | 0.00 | 0.00 | 70 | 1002.0 |
| 20260505111524 | 46 | 60 | 0.0 | 1.7 | 0.00 | 0.00 | 0.00 | 71 | 1002.0 |
| 20260505111003 | 46 | 55 | 0.9 | 1.7 | 0.00 | 0.00 | 0.00 | 71 | 1001.9 |
| 20260505110502 | 46 | 53 | 0.9 | 1.7 | 0.00 | 0.00 | 0.00 | 71 | 1001.9 |
| 20260505102002 | 48 | 28 | 0.0 | 1.7 | 0.00 | 0.00 | 0.00 | 68 | 1002.4 |
| 20260505101503 | 48 | 28 | 0.0 | 0.9 | 0.00 | 0.00 | 0.00 | 68 | 1002.3 |
| 20260505101002 | 48 | 28 | 0.0 | 0.9 | 0.00 | 0.00 | 0.00 | 68 | 1002.4 |
| 20260505100503 | 49 | 28 | 0.0 | 0.0 | 0.00 | 0.00 | 0.00 | 68 | 1002.4 |
| 20260505100023 | 49 | 28 | 0.0 | 0.0 | 0.00 | 0.00 | 0.00 | 68 | 1002.3 |
| 20260505095503 | 49 | 28 | 0.0 | 0.0 | 0.00 | 0.00 | 0.00 | 68 | 1002.2 |
| 20260505095002 | 49 | 28 | 0.0 | 0.0 | 0.00 | 0.00 | 0.00 | 67 | 1002.2 |
| 20260505094503 | 49 | 28 | 0.0 | 0.0 | 0.00 | 0.00 | 0.00 | 67 | 1002.2 |
| 20260505094003 | 50 | 28 | 0.0 | 0.0 | 0.00 | 0.00 | 0.00 | 67 | 1002.4 |
| 20260505093503 | 50 | 28 | 0.0 | 0.0 | 0.00 | 0.00 | 0.00 | 67 | 1002.5 |
| 20260505093003 | 50 | 28 | 0.0 | 0.0 | 0.00 | 0.00 | 0.00 | 67 | 1002.5 |
| 20260505092503 | 50 | 28 | 0.0 | 0.0 | 0.00 | 0.00 | 0.00 | 66 | 1002.4 |
| 20260505092003 | 50 | 28 | 0.0 | 0.0 | 0.00 | 0.00 | 0.00 | 66 | 1002.3 |
| 20260505091502 | 51 | 28 | 0.0 | 0.0 | 0.00 | 0.00 | 0.00 | 66 | 1002.4 |
| 20260505091003 | 51 | 28 | 0.0 | 0.0 | 0.00 | 0.00 | 0.00 | 66 | 1002.4 |
| 20260505090503 | 51 | 28 | 0.0 | 0.0 | 0.00 | 0.00 | 0.00 | 66 | 1002.2 |
| 20260505090002 | 51 | 28 | 0.0 | 0.0 | 0.00 | 0.00 | 0.00 | 65 | 1002.3 |
| 20260505085503 | 51 | 28 | 0.0 | 0.0 | 0.00 | 0.00 | 0.00 | 65 | 1002.3 |
| 20260505085003 | 52 | 28 | 0.0 | 0.0 | 0.00 | 0.00 | 0.00 | 65 | 1002.4 |
| 20260505084503 | 52 | 28 | 0.0 | 0.0 | 0.00 | 0.00 | 0.00 | 65 | 1002.3 |
| 20260505084003 | 52 | 28 | 0.0 | 0.0 | 0.00 | 0.00 | 0.00 | 65 | 1002.3 |
| 20260505083503 | 52 | 28 | 0.0 | 0.9 | 0.00 | 0.00 | 0.00 | 65 | 1002.4 |
| 20260505082503 | 52 | 27 | 0.0 | 0.9 | 0.00 | 0.00 | 0.00 | 63 | 1002.2 |
| 20260505082003 | 52 | 28 | 0.0 | 2.6 | 0.00 | 0.00 | 0.00 | 63 | 1002.4 |
| 20260505081524 | 53 | 28 | 0.0 | 2.6 | 0.00 | 0.00 | 0.00 | 63 | 1002.4 |
| 20260505081003 | 53 | 29 | 0.0 | 2.6 | 0.00 | 0.00 | 0.00 | 62 | 1002.3 |
| 20260505080503 | 53 | 30 | 0.0 | 1.7 | 0.00 | 0.00 | 0.00 | 62 | 1002.4 |
| 20260505080002 | 53 | 29 | 0.0 | 1.7 | 0.00 | 0.00 | 0.00 | 62 | 1002.3 |
| 20260505075503 | 53 | 29 | 0.9 | 1.7 | 0.00 | 0.00 | 0.00 | 62 | 1002.2 |
| 20260505075002 | 53 | 29 | 0.0 | 2.6 | 0.00 | 0.00 | 0.00 | 62 | 1002.3 |
| 20260505074524 | 54 | 30 | 0.0 | 3.5 | 0.00 | 0.00 | 0.00 | 62 | 1002.3 |
| 20260505074003 | 54 | 30 | 0.0 | 3.5 | 0.00 | 0.00 | 0.00 | 62 | 1002.3 |
| 20260505073503 | 54 | 32 | 0.9 | 1.7 | 0.00 | 0.00 | 0.00 | 62 | 1002.3 |
| 20260505073003 | 54 | 32 | 0.0 | 1.7 | 0.00 | 0.00 | 0.00 | 61 | 1002.5 |
| 20260505072524 | 54 | 32 | 0.9 | 1.7 | 0.00 | 0.00 | 0.00 | 61 | 1002.5 |
| 20260505072003 | 54 | 32 | 0.0 | 0.0 | 0.00 | 0.00 | 0.00 | 61 | 1002.3 |
| 20260505071523 | 54 | 32 | 0.0 | 3.5 | 0.00 | 0.00 | 0.00 | 60 | 1002.0 |
| 20260505071024 | 54 | 32 | 0.0 | 3.5 | 0.00 | 0.00 | 0.00 | 60 | 1001.9 |
| 20260505070524 | 55 | 32 | 1.7 | 4.3 | 0.00 | 0.00 | 0.00 | 60 | 1001.9 |
| 20260505070002 | 55 | 28 | 0.9 | 5.2 | 0.00 | 0.00 | 0.00 | 59 | 1001.8 |
| 20260505065503 | 55 | 23 | 2.6 | 7.0 | 0.00 | 0.00 | 0.00 | 59 | 1001.5 |
| 20260505065003 | 55 | 24 | 1.7 | 10.4 | 0.00 | 0.00 | 0.00 | 58 | 1001.5 |
| 20260505064502 | 55 | 21 | 5.2 | 10.4 | 0.00 | 0.00 | 0.00 | 58 | 1001.4 |
| 20260505064003 | 55 | 22 | 6.1 | 9.6 | 0.00 | 0.00 | 0.00 | 58 | 1001.2 |
| 20260505063503 | 55 | 24 | 1.7 | 9.6 | 0.00 | 0.00 | 0.00 | 58 | 1001.1 |
| 20260505063024 | 55 | 35 | 2.6 | 7.8 | 0.00 | 0.00 | 0.00 | 58 | 1001.4 |
| 20260505062502 | 55 | 26 | 1.7 | 13.0 | 0.00 | 0.00 | 0.00 | 57 | 1001.9 |
| 20260505062003 | 55 | 24 | 4.3 | 13.0 | 0.00 | 0.00 | 0.00 | 58 | 1001.7 |
| 20260505061502 | 55 | 21 | 8.7 | 13.0 | 0.00 | 0.00 | 0.00 | 58 | 1001.4 |
| 20260505061003 | 56 | 18 | 3.5 | 8.7 | 0.00 | 0.00 | 0.00 | 57 | 1001.4 |
| 20260505060503 | 56 | 18 | 4.3 | 13.0 | 0.00 | 0.00 | 0.00 | 57 | 1001.7 |
| 20260505060023 | 56 | 13 | 7.8 | 18.2 | 0.00 | 0.00 | 0.00 | 55 | 1001.7 |
| 20260505055503 | 56 | 16 | 9.6 | 18.2 | 0.00 | 0.00 | 0.00 | 55 | 1001.6 |
| 20260505055003 | 56 | 27 | 3.5 | 9.6 | 0.00 | 0.00 | 0.00 | 55 | 1001.5 |
| 20260505054503 | 56 | 20 | 5.2 | 11.3 | 0.00 | 0.00 | 0.00 | 55 | 1001.6 |
| 20260505054003 | 56 | 13 | 6.1 | 11.3 | 0.00 | 0.00 | 0.00 | 55 | 1001.6 |
| 20260505053523 | 56 | 23 | 4.3 | 10.4 | 0.00 | 0.00 | 0.00 | 55 | 1001.6 |
| 20260505053003 | 56 | 21 | 6.1 | 9.6 | 0.00 | 0.00 | 0.00 | 55 | 1001.4 |
| 20260505052502 | 56 | 14 | 4.3 | 12.2 | 0.00 | 0.00 | 0.00 | 55 | 1001.3 |
| 20260505052024 | 56 | 13 | 7.8 | 12.2 | 0.00 | 0.00 | 0.00 | 54 | 1001.2 |
| 20260505051502 | 56 | 28 | 3.5 | 8.7 | 0.00 | 0.00 | 0.00 | 55 | 1001.3 |
| 20260505051003 | 56 | 22 | 3.5 | 10.4 | 0.00 | 0.00 | 0.00 | 56 | 1001.3 |
| 20260505050502 | 56 | 15 | 4.3 | 10.4 | 0.00 | 0.00 | 0.00 | 55 | 1001.4 |
| 20260505041024 | 57 | 20 | 3.5 | 19.1 | 0.00 | 0.00 | 0.00 | 54 | 1000.8 |
| 20260505040503 | 57 | 23 | 8.7 | 20.0 | 0.00 | 0.00 | 0.00 | 53 | 1000.5 |
| 20260505035524 | 58 | 12 | 13.0 | 22.6 | 0.00 | 0.00 | 0.00 | 52 | 1000.3 |
| 20260505035002 | 58 | 26 | 2.6 | 20.0 | 0.00 | 0.00 | 0.00 | 52 | 1000.3 |
| 20260505034503 | 57 | 19 | 1.7 | 25.2 | 0.00 | 0.00 | 0.00 | 52 | 1000.0 |
| 20260505034003 | 57 | 15 | 12.2 | 25.2 | 0.00 | 0.00 | 0.00 | 53 | 999.9 |
| 20260505033502 | 57 | 20 | 10.4 | 20.0 | 0.00 | 0.00 | 0.00 | 54 | 999.7 |
| 20260505033003 | 57 | 16 | 10.4 | 20.0 | 0.00 | 0.00 | 0.00 | 55 | 999.3 |
| 20260505032502 | 57 | 8 | 6.1 | 25.2 | 0.00 | 0.00 | 0.00 | 55 | 999.1 |
| 20260505032003 | 57 | 13 | 13.9 | 25.2 | 0.00 | 0.00 | 0.00 | 54 | 998.7 |
| 20260505031502 | 57 | 11 | 14.8 | 24.3 | 0.00 | 0.00 | 0.00 | 55 | 998.4 |
| 20260505031024 | 57 | 12 | 14.8 | 24.3 | 0.00 | 0.00 | 0.00 | 55 | 998.5 |
| 20260505030502 | 57 | 18 | 10.4 | 24.3 | 0.00 | 0.00 | 0.00 | 55 | 998.5 |
| 20260505030003 | 57 | 17 | 13.9 | 27.8 | 0.00 | 0.00 | 0.00 | 54 | 998.5 |
| 20260505025503 | 57 | 12 | 16.5 | 27.8 | 0.00 | 0.00 | 0.00 | 55 | 998.2 |
| 20260505025003 | 57 | 20 | 18.2 | 26.1 | 0.00 | 0.00 | 0.00 | 55 | 998.0 |
| 20260505024524 | 57 | 13 | 17.4 | 26.1 | 0.00 | 0.00 | 0.00 | 56 | 998.2 |
| 20260505024002 | 58 | 14 | 17.4 | 26.1 | 0.00 | 0.00 | 0.00 | 53 | 998.1 |
| 20260505023503 | 59 | 16 | 18.2 | 26.1 | 0.00 | 0.00 | 0.00 | 50 | 997.9 |
| 20260505023003 | 59 | 19 | 15.6 | 29.5 | 0.00 | 0.00 | 0.00 | 49 | 997.7 |
| 20260505022503 | 59 | 17 | 20.0 | 29.5 | 0.00 | 0.00 | 0.00 | 49 | 997.2 |
| 20260505022002 | 59 | 16 | 20.9 | 28.7 | 0.00 | 0.00 | 0.00 | 50 | 996.8 |
| 20260505021524 | 59 | 12 | 20.9 | 28.7 | 0.00 | 0.00 | 0.00 | 50 | 996.9 |
| 20260505021003 | 59 | 11 | 16.5 | 24.3 | 0.00 | 0.00 | 0.00 | 52 | 996.8 |
| 20260505020503 | 59 | 17 | 15.6 | 24.3 | 0.00 | 0.00 | 0.00 | 52 | 996.9 |
| 20260505020045 | 59 | 14 | 15.6 | 24.3 | 0.00 | 0.00 | 0.00 | 51 | 997.0 |
| 20260505015503 | 60 | 19 | 13.0 | 27.8 | 0.00 | 0.00 | 0.00 | 50 | 997.2 |
| 20260505015002 | 61 | 13 | 15.6 | 27.8 | 0.00 | 0.00 | 0.00 | 47 | 996.8 |
| 20260505014503 | 63 | 15 | 18.2 | 27.8 | 0.00 | 0.00 | 0.00 | 42 | 996.6 |
| 20260505014003 | 64 | 17 | 17.4 | 25.2 | 0.00 | 0.00 | 0.00 | 40 | 996.2 |
| 20260505013503 | 65 | 18 | 15.6 | 26.9 | 0.00 | 0.00 | 0.00 | 39 | 996.3 |
| 20260505013002 | 66 | 17 | 16.5 | 26.9 | 0.00 | 0.00 | 0.00 | 33 | 995.9 |
| 20260505012503 | 66 | 23 | 14.8 | 23.5 | 0.00 | 0.00 | 0.00 | 33 | 995.8 |
| 20260505012002 | 66 | 17 | 12.2 | 20.9 | 0.00 | 0.00 | 0.00 | 33 | 996.0 |
| 20260505011503 | 66 | 12 | 14.8 | 20.9 | 0.00 | 0.00 | 0.00 | 33 | 995.9 |
| 20260505011003 | 66 | 28 | 10.4 | 18.2 | 0.00 | 0.00 | 0.00 | 33 | 995.9 |
| 20260505010503 | 67 | 19 | 9.6 | 15.6 | 0.00 | 0.00 | 0.00 | 32 | 995.8 |
| 20260505010004 | 67 | 22 | 9.6 | 19.1 | 0.00 | 0.00 | 0.00 | 31 | 995.7 |
| 20260505005523 | 68 | 28 | 11.3 | 19.1 | 0.00 | 0.00 | 0.00 | 30 | 995.5 |
| 20260505005003 | 68 | 25 | 11.3 | 17.4 | 0.00 | 0.00 | 0.00 | 28 | 995.5 |
| 20260505004502 | 69 | 27 | 7.0 | 13.0 | 0.00 | 0.00 | 0.00 | 27 | 995.6 |
| 20260505004003 | 69 | 18 | 9.6 | 14.8 | 0.00 | 0.00 | 0.00 | 27 | 995.6 |
| 20260505003502 | 69 | 25 | 7.0 | 14.8 | 0.00 | 0.00 | 0.00 | 27 | 995.4 |
| 20260505003003 | 69 | 21 | 7.8 | 16.5 | 0.00 | 0.00 | 0.00 | 27 | 995.5 |
| 20260505002503 | 70 | 18 | 7.8 | 16.5 | 0.00 | 0.00 | 0.00 | 26 | 995.4 |
| 20260505002003 | 70 | 27 | 7.0 | 15.6 | 0.00 | 0.00 | 0.00 | 26 | 995.4 |
| 20260505001503 | 70 | 42 | 5.2 | 15.6 | 0.00 | 0.00 | 0.00 | 25 | 995.7 |
| 20260505001002 | 70 | 21 | 10.4 | 14.8 | 0.00 | 0.00 | 0.00 | 25 | 995.5 |
| 20260505000503 | 71 | 31 | 7.0 | 14.8 | 0.00 | 0.00 | 0.00 | 25 | 995.5 |
| 20260505000003 | 72 | 22 | 3.5 | 9.6 | 0.00 | 0.00 | 0.00 | 24 | 995.6 |
| 20260504235502 | 73 | 19 | 2.6 | 9.6 | 0.00 | 0.00 | 0.00 | 23 | 995.8 |
| 20260504235003 | 74 | 6 | 4.3 | 10.4 | 0.00 | 0.00 | 0.00 | 22 | 995.7 |
| 20260504234523 | 74 | 282 | 5.2 | 13.9 | 0.00 | 0.00 | 0.00 | 19 | 995.6 |
| 20260504234003 | 74 | 265 | 7.8 | 13.9 | 0.00 | 0.00 | 0.00 | 19 | 995.5 |
| 20260504233503 | 75 | 266 | 7.8 | 13.9 | 0.00 | 0.00 | 0.00 | 19 | 995.5 |
| 20260504233003 | 75 | 259 | 9.6 | 15.6 | 0.00 | 0.00 | 0.00 | 19 | 995.6 |
| 20260504232503 | 75 | 260 | 11.3 | 15.6 | 0.00 | 0.00 | 0.00 | 19 | 995.6 |
| 20260504232002 | 75 | 260 | 11.3 | 15.6 | 0.00 | 0.00 | 0.00 | 18 | 995.4 |
| 20260504231503 | 75 | 260 | 7.8 | 17.4 | 0.00 | 0.00 | 0.00 | 19 | 995.5 |
| 20260504231002 | 75 | 253 | 10.4 | 17.4 | 0.00 | 0.00 | 0.00 | 19 | 995.3 |
| 20260504230503 | 75 | 249 | 12.2 | 18.2 | 0.00 | 0.00 | 0.00 | 19 | 995.2 |
| 20260504230024 | 75 | 247 | 9.6 | 18.2 | 0.00 | 0.00 | 0.00 | 19 | 995.3 |
| 20260504225503 | 75 | 261 | 9.6 | 19.1 | 0.00 | 0.00 | 0.00 | 19 | 995.2 |
| 20260504225002 | 75 | 250 | 13.9 | 19.1 | 0.00 | 0.00 | 0.00 | 18 | 995.2 |
| 20260504224545 | 75 | 245 | 13.9 | 22.6 | 0.00 | 0.00 | 0.00 | 18 | 995.2 |
| 20260504224002 | 75 | 243 | 13.0 | 22.6 | 0.00 | 0.00 | 0.00 | 18 | 995.3 |
| 20260504223503 | 75 | 263 | 8.7 | 18.2 | 0.00 | 0.00 | 0.00 | 18 | 995.2 |
| 20260504223002 | 75 | 251 | 10.4 | 20.0 | 0.00 | 0.00 | 0.00 | 18 | 995.2 |
| 20260504222503 | 75 | 249 | 13.0 | 20.0 | 0.00 | 0.00 | 0.00 | 18 | 995.2 |
| 20260504222003 | 75 | 250 | 14.8 | 25.2 | 0.00 | 0.00 | 0.00 | 18 | 995.2 |
| 20260504221503 | 75 | 261 | 15.6 | 25.2 | 0.00 | 0.00 | 0.00 | 18 | 995.3 |
| 20260504221002 | 75 | 253 | 17.4 | 23.5 | 0.00 | 0.00 | 0.00 | 18 | 995.3 |
| 20260504220545 | 76 | 237 | 15.6 | 27.8 | 0.00 | 0.00 | 0.00 | 18 | 995.4 |
| 20260504220002 | 76 | 244 | 16.5 | 27.8 | 0.00 | 0.00 | 0.00 | 18 | 995.6 |
| 20260504215503 | 76 | 252 | 14.8 | 23.5 | 0.00 | 0.00 | 0.00 | 18 | 995.7 |
| 20260504215002 | 76 | 252 | 11.3 | 22.6 | 0.00 | 0.00 | 0.00 | 18 | 995.7 |
| 20260504214503 | 76 | 232 | 12.2 | 22.6 | 0.00 | 0.00 | 0.00 | 18 | 995.7 |
| 20260504214003 | 76 | 243 | 13.9 | 24.3 | 0.00 | 0.00 | 0.00 | 18 | 996.0 |
| 20260504213503 | 75 | 230 | 16.5 | 24.3 | 0.00 | 0.00 | 0.00 | 19 | 996.0 |
| 20260504213002 | 75 | 241 | 13.9 | 25.2 | 0.00 | 0.00 | 0.00 | 19 | 996.0 |
| 20260504212503 | 75 | 258 | 15.6 | 25.2 | 0.00 | 0.00 | 0.00 | 19 | 996.3 |
| 20260504212002 | 76 | 232 | 15.6 | 24.3 | 0.00 | 0.00 | 0.00 | 20 | 996.3 |
| 20260504211002 | 76 | 228 | 15.6 | 23.5 | 0.00 | 0.00 | 0.00 | 20 | 996.2 |
| 20260504210503 | 75 | 239 | 18.2 | 26.1 | 0.00 | 0.00 | 0.00 | 21 | 996.4 |
| 20260504210023 | 75 | 254 | 14.8 | 27.8 | 0.00 | 0.00 | 0.00 | 20 | 996.4 |
| 20260504205503 | 75 | 242 | 22.6 | 31.3 | 0.00 | 0.00 | 0.00 | 19 | 996.5 |
| 20260504205002 | 76 | 246 | 20.0 | 31.3 | 0.00 | 0.00 | 0.00 | 21 | 996.5 |
| 20260504204503 | 76 | 235 | 16.5 | 30.4 | 0.00 | 0.00 | 0.00 | 22 | 996.5 |
| 20260504204002 | 75 | 250 | 17.4 | 30.4 | 0.00 | 0.00 | 0.00 | 21 | 996.7 |
| 20260504203503 | 75 | 260 | 15.6 | 28.7 | 0.00 | 0.00 | 0.00 | 20 | 996.8 |
| 20260504203003 | 75 | 260 | 21.7 | 28.7 | 0.00 | 0.00 | 0.00 | 20 | 996.7 |
| 20260504202503 | 76 | 257 | 20.9 | 29.5 | 0.00 | 0.00 | 0.00 | 19 | 996.8 |
| 20260504202003 | 76 | 236 | 20.9 | 33.0 | 0.00 | 0.00 | 0.00 | 19 | 996.8 |
| 20260504201503 | 76 | 249 | 20.0 | 33.0 | 0.00 | 0.00 | 0.00 | 19 | 996.9 |
| 20260504201003 | 76 | 250 | 24.3 | 30.4 | 0.00 | 0.00 | 0.00 | 20 | 996.8 |
| 20260504200523 | 76 | 241 | 20.9 | 29.5 | 0.00 | 0.00 | 0.00 | 20 | 996.9 |
| 20260504200003 | 77 | 249 | 21.7 | 29.5 | 0.00 | 0.00 | 0.00 | 21 | 996.9 |
| 20260504195502 | 76 | 235 | 16.5 | 27.8 | 0.00 | 0.00 | 0.00 | 21 | 996.7 |
| 20260504195003 | 77 | 247 | 21.7 | 29.5 | 0.00 | 0.00 | 0.00 | 20 | 996.8 |
| 20260504194503 | 77 | 256 | 20.0 | 29.5 | 0.00 | 0.00 | 0.00 | 19 | 996.9 |
| 20260504194003 | 78 | 256 | 15.6 | 22.6 | 0.00 | 0.00 | 0.00 | 17 | 996.9 |
| 20260504193503 | 77 | 253 | 7.0 | 13.9 | 0.00 | 0.00 | 0.00 | 17 | 996.8 |
| 20260504193002 | 77 | 285 | 7.8 | 21.7 | 0.00 | 0.00 | 0.00 | 16 | 997.1 |
| 20260504192503 | 78 | 263 | 12.2 | 21.7 | 0.00 | 0.00 | 0.00 | 16 | 997.3 |
| 20260504192002 | 78 | 281 | 7.0 | 13.9 | 0.00 | 0.00 | 0.00 | 16 | 997.3 |
| 20260504191524 | 77 | 270 | 4.3 | 8.7 | 0.00 | 0.00 | 0.00 | 17 | 997.2 |
| 20260504191003 | 77 | 332 | 3.5 | 15.6 | 0.00 | 0.00 | 0.00 | 16 | 997.3 |
| 20260504190503 | 77 | 248 | 8.7 | 19.1 | 0.00 | 0.00 | 0.00 | 16 | 997.3 |
| 20260504190024 | 77 | 253 | 14.8 | 20.0 | 0.00 | 0.00 | 0.00 | 16 | 997.3 |
| 20260504185503 | 77 | 268 | 6.1 | 20.0 | 0.00 | 0.00 | 0.00 | 16 | 997.4 |
| 20260504184503 | 76 | 252 | 9.6 | 19.1 | 0.00 | 0.00 | 0.00 | 17 | 997.6 |
| 20260504184002 | 76 | 254 | 9.6 | 16.5 | 0.00 | 0.00 | 0.00 | 16 | 997.7 |
| 20260504183503 | 76 | 260 | 10.4 | 17.4 | 0.00 | 0.00 | 0.00 | 16 | 997.7 |
| 20260504183002 | 75 | 273 | 9.6 | 20.0 | 0.00 | 0.00 | 0.00 | 16 | 997.8 |
| 20260504182503 | 75 | 258 | 13.0 | 20.0 | 0.00 | 0.00 | 0.00 | 16 | 997.8 |
| 20260504182002 | 75 | 251 | 13.0 | 18.2 | 0.00 | 0.00 | 0.00 | 16 | 997.9 |
| 20260504181524 | 76 | 271 | 4.3 | 15.6 | 0.00 | 0.00 | 0.00 | 16 | 998.1 |
| 20260504181002 | 76 | 306 | 8.7 | 17.4 | 0.00 | 0.00 | 0.00 | 16 | 998.2 |
| 20260504180524 | 76 | 287 | 9.6 | 23.5 | 0.00 | 0.00 | 0.00 | 16 | 998.1 |
| 20260504180002 | 76 | 259 | 9.6 | 23.5 | 0.00 | 0.00 | 0.00 | 17 | 998.2 |
| 20260504175545 | 75 | 298 | 4.3 | 21.7 | 0.00 | 0.00 | 0.00 | 17 | 998.2 |
| 20260504175024 | 75 | 263 | 11.3 | 21.7 | 0.00 | 0.00 | 0.00 | 17 | 998.3 |
| 20260504174502 | 75 | 265 | 12.2 | 21.7 | 0.00 | 0.00 | 0.00 | 18 | 998.3 |
| 20260504174003 | 74 | 255 | 4.3 | 16.5 | 0.00 | 0.00 | 0.00 | 19 | 998.4 |
| 20260504173503 | 74 | 283 | 8.7 | 16.5 | 0.00 | 0.00 | 0.00 | 19 | 998.6 |
| 20260504173003 | 74 | 262 | 7.8 | 15.6 | 0.00 | 0.00 | 0.00 | 21 | 998.6 |
| 20260504172502 | 74 | 244 | 5.2 | 17.4 | 0.00 | 0.00 | 0.00 | 22 | 998.7 |
| 20260504172003 | 74 | 248 | 11.3 | 17.4 | 0.00 | 0.00 | 0.00 | 23 | 998.8 |
| 20260504171503 | 73 | 269 | 6.1 | 17.4 | 0.00 | 0.00 | 0.00 | 23 | 999.0 |
| 20260504171003 | 73 | 272 | 8.7 | 17.4 | 0.00 | 0.00 | 0.00 | 22 | 999.3 |
| 20260504170503 | 72 | 296 | 7.0 | 21.7 | 0.00 | 0.00 | 0.00 | 22 | 999.3 |
| 20260504151045 | 67 | 259 | 18.2 | 30.4 | 0.00 | 0.00 | 0.00 | 28 | 1000.6 |
| 20260504150503 | 67 | 269 | 20.9 | 30.4 | 0.00 | 0.00 | 0.00 | 28 | 1000.7 |
| 20260504141002 | 64 | 263 | 13.0 | 22.6 | 0.00 | 0.00 | 0.00 | 34 | 1000.5 |
| 20260504140503 | 64 | 263 | 13.9 | 22.6 | 0.00 | 0.00 | 0.00 | 35 | 1000.6 |
| 20260504130503 | 59 | 280 | 4.3 | 7.8 | 0.00 | 0.00 | 0.00 | 39 | 1000.6 |